RH
3 3 3 3 4 4 3 3 4 4 4 5 5 5 5 6 6 7 8 9 10 13
3 3 3 4 4 4 4 4 5 5 5 5 5 5 6 6 6 7 8 10 9 10
4 4 4 4 4 4 5 5 5 6 6 6 6 6 7 8 8 8 9 9 9 11
4 4 4 5 5 5 5 6 6 6 7 7 7 7 8 9 9 9 10 10 11 13
4 5 5 5 5 6 6 7 7 7 8 8 8 8 9 9 10 11 14 13 16 18
5 5 6 6 6 7 7 8 8 8 8 9 9 9 10 10 11 13 17 17 19 19
6 7 6 7 7 8 8 8 8 8 9 9 9 10 10 10 11 13 14 14 19 20
7 7 8 8 9 9 9 8 8 9 9 10 10 10 10 10 11 11 13 17 19 18
8 9 9 9 9 9 9 9 9 10 10 10 10 10 10 10 12 14 14 16 16 19
10 10 10 10 9 9 9 9 10 10 10 10 10 10 11 11 12 15 17 17 18 18
11 11 10 10 10 10 10 10 10 10 11 11 11 11 12 12 13 17 17 16 18 17
12 11 11 11 10 10 11 11 11 11 11 11 12 12 12 13 13 14 14 15 17 17
12 12 12 11 11 11 11 11 12 11 12 12 12 13 13 13 13 13 13 14 16 16
13 13 12 12 12 12 12 12 12 12 12 13 14 13 13 12 12 13 14 16 17 17